Weather History for Cheyenne, WY

Change the Weather History Date:

Friday, March 15, 2013

  Actual Average Record
Temperature  
Mean Temperature 56 °F 36 °F  
Max Temperature 67 °F 48 °F 67 °F (1877)
Min Temperature 45 °F 24 °F -13 °F (1880)
Degree Days  
Heating Degree Days 9 29  
Month to date heating degree days 418 462  
Since 1 July heating degree days 5351 5481  
Cooling Degree Days 0 0  
Month to date cooling degree days 0 0  
Year to date cooling degree days 0 0  
Growing Degree Days 8 (Base 50)    
Moisture  
Dew Point 17 °F    
Average Humidity 24    
Maximum Humidity 38    
Minimum Humidity 10    
Precipitation  
Precipitation 0.00 in 0.04 in 0.59 in (1946)
Month to date precipitation 0.31 0.45  
Year to date precipitation 1.19 1.25  
Snow  
Snow 0.00 in 0.30 in 8.00 in (1928)
Month to date snowfall 4.2 5.1  
Since 1 July snowfall 42.6 41.6  
Snow Depth 0.00 in    
Sea Level Pressure  
Sea Level Pressure 29.83 in    
Wind  
Wind Speed 15 mph (WNW)    
Max Wind Speed 32 mph    
Max Gust Speed 44 mph    
Visibility 10 miles    
Events      
T = Trace of Precipitation, MM = Missing Value Source: NWS Daily Summary

Daily Weather History Graph

Daily Weather History Graph

Search for Another Location

Airport:

Trip Planner

Search our weather history database for the weather conditions in past years. The results will help you decide how hot, cold, wet, or windy it might be!

Date:

Astronomy

Mar. 15, 2013 Rise Set
Actual Time 7:10 AM MDT 7:06 PM MDT
Civil Twilight 6:43 AM MDT 7:33 PM MDT
Nautical Twilight 6:11 AM MDT 8:05 PM MDT
Astronomical Twilight 5:38 AM MDT 8:38 PM MDT
Moon 8:59 AM MDT (3/15) 11:25 PM MDT (3/15)
Length of Visible Light 12h 50m
Length of Day
11h 55m
Waxing Crescent, 16% of the Moon is Illuminated
Mar 15
Waxing Crescent
Mar 19
First Quarter
Mar 27
Full
Apr 2
Last Quarter
Apr 10
New

Hourly Weather History & Observations

Time (MDT) Temp. Dew Point Humidity Pressure Visibility Wind Dir Wind Speed Gust Speed Precip Events Conditions
12:53 AM 48.0 °F 23.0 °F 37% 29.96 in 10.0 mi West 12.7 mph - N/A   Clear
1:53 AM 46.9 °F 23.0 °F 39% 29.93 in 10.0 mi West 10.4 mph - N/A   Clear
2:53 AM 51.1 °F 19.9 °F 29% 29.88 in 10.0 mi West 16.1 mph - N/A   Clear
3:53 AM 48.0 °F 19.0 °F 32% 29.88 in 10.0 mi West 13.8 mph - N/A   Clear
4:53 AM 48.9 °F 19.9 °F 32% 29.86 in 10.0 mi West 13.8 mph - N/A   Clear
5:53 AM 54.0 °F 17.1 °F 23% 29.85 in 10.0 mi West 20.7 mph - N/A   Clear
6:53 AM 51.1 °F 19.0 °F 28% 29.87 in 10.0 mi West 13.8 mph - N/A   Clear
7:53 AM 51.1 °F 19.9 °F 29% 29.89 in 10.0 mi West 4.6 mph - N/A   Clear
8:53 AM 53.1 °F 21.9 °F 30% 29.88 in 10.0 mi Calm Calm - N/A   Clear
9:53 AM 55.9 °F 21.0 °F 26% 29.88 in 10.0 mi WSW 11.5 mph - N/A   Clear
10:40 AM 62.6 °F 19.4 °F 19% 30.00 in 10.0 mi WNW 13.8 mph 25.3 mph N/A   Clear
10:53 AM 64.0 °F 19.0 °F 18% 29.82 in 10.0 mi West 18.4 mph 21.9 mph N/A   Clear
11:53 AM 66.0 °F 19.0 °F 17% 29.80 in 10.0 mi West 19.6 mph 26.5 mph N/A   Clear
12:53 PM 66.0 °F 12.9 °F 13% 29.78 in 10.0 mi WNW 17.3 mph 39.1 mph N/A   Clear
1:53 PM 64.0 °F 14.0 °F 14% 29.77 in 10.0 mi WNW 26.5 mph 38.0 mph N/A   Clear
2:53 PM 64.9 °F 10.0 °F 12% 29.75 in 10.0 mi WNW 26.5 mph 35.7 mph N/A   Clear
3:53 PM 64.0 °F 6.1 °F 10% 29.76 in 10.0 mi WNW 27.6 mph 40.3 mph N/A   Clear
4:53 PM 63.0 °F 9.0 °F 12% 29.77 in 10.0 mi NW 24.2 mph 38.0 mph N/A   Clear
5:53 PM 61.0 °F 10.0 °F 13% 29.74 in 10.0 mi WNW 19.6 mph 29.9 mph N/A   Clear
6:53 PM 57.9 °F 10.0 °F 15% 29.77 in 10.0 mi NW 12.7 mph 18.4 mph N/A   Clear
7:53 PM 54.0 °F 12.9 °F 20% 29.79 in 10.0 mi WNW 6.9 mph - N/A   Clear
8:53 PM 51.1 °F 19.0 °F 28% 29.80 in 10.0 mi West 8.1 mph - N/A   Clear
9:53 PM 52.0 °F 19.0 °F 27% 29.80 in 10.0 mi NW 11.5 mph - N/A   Clear
10:53 PM 53.1 °F 21.9 °F 30% 29.77 in 10.0 mi North 17.3 mph 27.6 mph N/A   Overcast
11:53 PM 51.1 °F 23.0 °F 33% 29.78 in 10.0 mi NNW 10.4 mph - N/A   Overcast